Hourly Weather Roundup
Issued by NWS Central Illinois

Home | Current Version | Previous Version | Text Only | Print | Product List | Glossary On
Versions: 1 2 3 4 5 6 7 8 9 10 11 12 13 14 15 16 17 18 19 20 21 22 23 24 25 26 27 28 29 30 31 32 33 34 35 36 37 38 39 40 41 42 43 44 45 46 47 48 49 50
000
NZUS43 KILX 231710
HWRILX

Area Weather Roundup
National Weather Service Lincoln IL
1200 PM CDT SUN APR 23 2017

NOTE:  "FAIR" indicates few or no clouds below 12,000 feet, with
       no sigificant weather and/or obstructions to visibility.


CITY           SKY/WX    TMP DP  RH WIND       PRES   REMARKS
Bloomington    SUNNY     65  31  28 NE12      30.11F
Champaign      SUNNY     66  32  28 NE13      30.08F
Danville       SUNNY     63  30  28 NE12      30.07S
Decatur        SUNNY     65  38  36 N13       30.09F
Effingham      SUNNY     63  34  33 N7G16     30.07F
Flora          SUNNY     62  34  34 NE16G23   30.04F
Galesburg      SUNNY     65  32  29 N8        30.12F
Jacksonville   SUNNY     63  32  30 N8G17     30.12F
Lacon          SUNNY     64  33  32 N10       30.11F
Lawrenceville  SUNNY     65  35  33 NE17G29   30.01F
Litchfield     SUNNY     62  35  36 N10G16    30.09F
$$


CITY           SKY/WX    TMP DP  RH WIND       PRES   REMARKS
Lincoln        SUNNY     66  36  33 N10       30.10F
Macomb         SUNNY     65  31  28 NE9       30.14F
Mattoon        SUNNY     64  33  31 NE17      30.06F
Mt Carmel AP   SUNNY     62  34  35 NE23      30.00F
Olney-Noble AP SUNNY     62  36  38 NE10G24   30.03F
Paris AP       SUNNY     64  32  31 NE14G20   30.08F
Peoria         SUNNY     65  31  28 E14       30.12F
Pontiac        SUNNY     65  27  23 NE10G16   30.11F
Rantoul        SUNNY     65  32  28 N14       30.09F
Robinson       SUNNY     63  32  31 NE17G23   30.04F
Springfield    SUNNY     67  34  29 NE15      30.10F
Taylorville    SUNNY     65  31  28 NE14G20   30.09F
$$

...REGIONAL REPORTS...


CITY           SKY/WX    TMP DP  RH WIND       PRES   REMARKS
Chicago O`Hare SUNNY     67  27  22 CALM      30.10F
Kankakee       SUNNY     67  28  23 NE6       30.11F
Moline         SUNNY     67  33  28 NE7       30.12F
Mount Sterling SUNNY     62  32  31 N12       30.11F
Mount Vernon   SUNNY     61  38  42 NE15      30.03F
Pittsfield     SUNNY     63  35  34 NE10      30.13F
Quincy         SUNNY     65  29  25 E8        30.12F
Rockford       SUNNY     67  33  28 CALM      30.12F
$$


CITY           SKY/WX    TMP DP  RH WIND       PRES   REMARKS
Burlington     SUNNY     65  33  30 NE9       30.13F
Cedar Rapids   SUNNY     67  34  29 CALM      30.12F
Des Moines     MOSUNNY   68  32  26 S10       30.13F
Kirksville     SUNNY     65  31  28 VRB5      30.14F
Ottumwa        SUNNY     65  34  31 CALM      30.13F
St Louis       SUNNY     65  31  28 NE12G18   30.10F
$$


CITY           SKY/WX    TMP DP  RH WIND       PRES   REMARKS
Terre Haute    LGT RAIN  64  32  30 NE16G22   30.05F
Evansville     MOSUNNY   63  41  44 N17G25    29.97F
Indianapolis   MOSUNNY   63  33  32 NE16      30.05F
Lafayette      SUNNY     60  38  43 E9        30.09F
Madison        MOSUNNY   67  34  29 NW9       30.08F
Milwaukee      SUNNY     69  33  26 W10       30.09F
$$





USA.gov is the U.S. government's official web portal to all federal, state and local government web resources and services.